This is the latest recevied weather packets stored in our database for station/object KSRC. If no packets are shown the sender has not sent any weather packets the latest 1 day(s).
| Time | Temp. | Humidity | Pressure | Rain* | Wind** | Luminosity | Snow |
|---|---|---|---|---|---|---|---|
| 1778046819 | 12.78° C | 100% | 1012.9 hPa | - | 6.71 m/s, 10° | - | - |
| 1778046223 | 12.78° C | 100% | 1012.9 hPa | - | 6.71 m/s, 10° | - | - |
| 1778045616 | - | - | 1012.9 hPa | - | 6.71 m/s, 10° | - | - |
| 1778045018 | - | - | 1012.9 hPa | - | 6.71 m/s, 10° | - | - |
| 1778044418 | 13.89° C | 93% | 1009.1 hPa | - | 3.58 m/s, 360° | - | - |
| 1778043820 | 13.89° C | 93% | 1009.1 hPa | - | 3.58 m/s, 360° | - | - |
| 1778043217 | 16.67° C | 93% | 1007.8 hPa | - | 5.81 m/s, 340° | - | - |
| 1778042620 | 16.67° C | 93% | 1007.8 hPa | - | 5.81 m/s, 340° | - | - |
| 1778042019 | 16.67° C | 93% | 1007.8 hPa | - | 5.81 m/s, 340° | - | - |
| 1778041419 | 20.56° C | 88% | 1007.5 hPa | - | 4.92 m/s, 350° | - | - |
| 1778040821 | 20.56° C | 88% | 1007.5 hPa | - | 4.92 m/s, 350° | - | - |
| 1778040339 | 20.56° C | 94% | 1006.8 hPa | - | 3.58 m/s, 10° | - | - |
| 1778039616 | 20° C | 93% | 1006.8 hPa | - | 1.79 m/s, 180° | - | - |
| 1778039024 | 20° C | 93% | 1006.8 hPa | - | 1.79 m/s, 180° | - | - |
| 1778038423 | 20° C | 93% | 1006.8 hPa | - | 1.79 m/s, 180° | - | - |
| 1778037821 | 20° C | 93% | 1006.8 hPa | - | 1.79 m/s, 180° | - | - |
| 1778037218 | 20° C | 93% | 1006.8 hPa | - | 1.79 m/s, 180° | - | - |
| 1778036616 | 20° C | 93% | 1006.8 hPa | - | 1.79 m/s, 180° | - | - |
| 1778036017 | 20° C | 93% | 1006.8 hPa | - | 0 m/s | - | - |
| 1778035417 | 20° C | 93% | 1006.8 hPa | - | 0 m/s | - | - |
| 1778034816 | - | - | 1010.2 hPa | - | 1.34 m/s, 70° | - | - |
| 1778034219 | - | - | 1010.2 hPa | - | 1.34 m/s, 70° | - | - |
| 1778033618 | - | - | 1010.2 hPa | - | 1.34 m/s, 70° | - | - |
| 1778033019 | - | - | 1010.2 hPa | - | 1.34 m/s, 70° | - | - |
| 1778032419 | - | - | 1009.8 hPa | - | 0 m/s | - | - |
* Rain since midnight (hover to see other rain measurements)
** Current wind speed in m/s (hover to see current wind gust speed)